This is the latest recevied weather packets stored in our database for station/object M7PDA-1. If no packets are shown the sender has not sent any weather packets the latest 10 day(s).
| Time | Temp. | Humidity | Pressure | Rain* | Wind** | Luminosity | Snow |
|---|---|---|---|---|---|---|---|
| 1777254230 | 10° C | 83% | 1027 hPa | - | - | - | - |
| 1777253330 | 10° C | 83% | 1027 hPa | - | - | - | - |
| 1777252429 | 10° C | 82% | 1027.1 hPa | - | - | - | - |
| 1777251528 | 10.56° C | 81% | 1027 hPa | - | - | - | - |
| 1777250627 | 10.56° C | 81% | 1027.1 hPa | - | - | - | - |
| 1777249727 | 10.56° C | 80% | 1027.1 hPa | - | - | - | - |
| 1777248826 | 10.56° C | 79% | 1027 hPa | - | - | - | - |
| 1777247924 | 11.11° C | 77% | 1027 hPa | - | - | - | - |
| 1777247024 | 11.67° C | 74% | 1027 hPa | - | - | - | - |
| 1777246123 | 11.67° C | 73% | 1027 hPa | - | - | - | - |
| 1777245222 | 12.22° C | 71% | 1026.8 hPa | - | - | - | - |
| 1777244321 | 12.22° C | 71% | 1026.7 hPa | - | - | - | - |
| 1777243420 | 12.22° C | 72% | 1026.6 hPa | - | - | - | - |
| 1777241619 | 12.22° C | 70% | 1026.4 hPa | - | - | - | - |
| 1777240718 | 12.78° C | 69% | 1026.4 hPa | - | - | - | - |
| 1777239817 | 12.78° C | 70% | 1026.3 hPa | - | - | - | - |
| 1777238917 | 13.33° C | 71% | 1026.3 hPa | - | - | - | - |
| 1777238016 | 13.89° C | 67% | 1026.1 hPa | - | - | - | - |
| 1777237115 | 13.89° C | 68% | 1026 hPa | - | - | - | - |
| 1777236214 | 14.44° C | 68% | 1026.1 hPa | - | - | - | - |
| 1777235313 | 14.44° C | 68% | 1026 hPa | - | - | - | - |
| 1777234412 | 14.44° C | 67% | 1025.9 hPa | - | - | - | - |
| 1777233512 | 15° C | 67% | 1025.8 hPa | - | - | - | - |
| 1777232611 | 15° C | 67% | 1025.6 hPa | - | - | - | - |
| 1777231710 | 15° C | 66% | 1025.6 hPa | - | - | - | - |
* Rain since midnight (hover to see other rain measurements)
** Current wind speed in m/s (hover to see current wind gust speed)